Find Starlink 31582

NORAD ID: 59545 Int'l Des: 2024-074 Owner: SPXS Country: US Constellation: starlink operational
LEOCIRCULAR

当前视图

正在加载3D地球...

About Starlink 31582

Starlink 31582 (NORAD 59545) is a starlink constellation satellite (v2 mini) launched Apr 18, 2024 by SPXS of US. It operates in LEO, CIRCULAR orbit with a mass of 730.00 kg.

即将过境

Passes for default location (London). Set your location on the main map for personalized predictions.

高度历史

Loading altitude history...

两行轨道根数

1 59545U 24074M 26263.62614196 -.00000056 00000-0 74922-5 0 9990
2 59545 43.0031 322.9379 0001123 237.8578 122.2165 15.27575656135820
Epoch: Sep 20, 2026 • Age: 14 hours

当前状态

高度 490.2 km
远地点 / 近地点 N/A
速度 7.62 km/s
星下点 -28.16°S, 149.65°W
发射日期 Apr 18, 2024
运行时间 2.4 years
类型 internet

技术详情

分类 Payload
质量 730.00 kg
干质量 700.00 kg
长度 0.30 m
跨度 29.00 m
形状 ? Box + pan
制造商 SPXS
平台类型 Starlink V2M
阶段状态 In Orbit
所有者/国家 SPXS/US

Most Searched